Starlink 3960

operational
NORAD ID: 52659 Int'l Des: 2022-053 Owner: SPXS Country: US Constellation: starlink
LEOCIRCULAR

About Starlink 3960

Description loading...

Live Position

Loading 3D Globe...

Upcoming Passes

Altitude History

Altitude vs Time

uPlot chart will show altitude changes over time

Two-Line Element Set

1 52659U 22053D 25257.29391693 -.00000379 00000-0 -57195-5 0 9995
2 52659 53.2171 225.9456 0001605 93.7447 266.3728 15.08832585184593
Epoch: Sep 14, 2025 • Age: 24 hours

Current Status

Altitude 540.0 km
Velocity 7.59 km/s
Sub-Earth Point 6.92°N, 128.08°E
Launch Date May 18, 2022
Age 3.3 years
Type internet

Technical Details

Classification Payload
Mass 297.00 kg
Dry Mass 275.00 kg
Total Mass 297.00 kg
Length 0.20 m
Diameter 2.80 m
Span 9.00 m
Shape Box + pan
Manufacturer SPXS
Bus Type Starlink
Phase Status In Orbit
Owner/State SPXS/US

Large Constellations

Loading constellations...